TimeCST,TemperatureF,Dew PointF,Humidity,Sea Level PressureIn,VisibilityMPH,Wind Direction,Wind SpeedMPH,Gust SpeedMPH,PrecipitationIn,Events,Conditions,WindDirDegrees,DateUTC
12:15 AM,10.0,0.5,65,30.47,10.0,South,12.7,-,N/A,,Clear,190,2013-12-12 06:15:00
12:35 AM,10.0,0.5,65,30.46,10.0,South,11.5,-,N/A,,Clear,190,2013-12-12 06:35:00
12:55 AM,10.2,0.5,65,30.45,10.0,South,10.4,-,N/A,,Clear,190,2013-12-12 06:55:00
1:15 AM,10.8,0.9,64,30.44,10.0,SSW,10.4,-,N/A,,Clear,200,2013-12-12 07:15:00
1:35 AM,11.5,1.0,63,30.44,10.0,SSW,11.5,-,N/A,,Clear,200,2013-12-12 07:35:00
1:55 AM,12.0,1.4,62,30.44,10.0,SSW,8.1,-,N/A,,Clear,200,2013-12-12 07:55:00
2:15 AM,12.2,1.4,62,30.43,10.0,SSW,6.9,-,N/A,,Clear,200,2013-12-12 08:15:00
2:35 AM,11.8,1.0,62,30.43,10.0,SSW,8.1,-,N/A,,Clear,200,2013-12-12 08:35:00
2:55 AM,11.3,1.2,64,30.42,10.0,South,8.1,-,N/A,,Clear,190,2013-12-12 08:55:00
3:15 AM,11.7,1.2,63,30.42,10.0,SSW,8.1,-,N/A,,Clear,210,2013-12-12 09:15:00
3:35 AM,13.3,2.1,61,30.42,10.0,SSW,10.4,-,N/A,,Clear,200,2013-12-12 09:35:00
3:55 AM,14.5,3.2,61,30.40,10.0,SSW,11.5,-,N/A,,Clear,200,2013-12-12 09:55:00
4:15 AM,15.3,3.7,60,30.40,10.0,SSW,10.4,-,N/A,,Clear,210,2013-12-12 10:15:00
4:35 AM,14.9,3.9,62,30.39,10.0,SSW,8.1,-,N/A,,Clear,200,2013-12-12 10:35:00
4:55 AM,13.5,3.7,65,30.38,10.0,South,8.1,-,N/A,,Clear,190,2013-12-12 10:55:00
5:15 AM,12.9,3.6,66,30.38,10.0,South,5.8,-,N/A,,Clear,190,2013-12-12 11:15:00
5:35 AM,12.7,3.7,67,30.37,10.0,South,6.9,-,N/A,,Clear,190,2013-12-12 11:35:00
5:55 AM,12.9,4.1,68,30.37,10.0,SSW,9.2,-,N/A,,Clear,200,2013-12-12 11:55:00
6:15 AM,13.1,4.8,70,30.37,10.0,SSW,6.9,-,N/A,,Clear,200,2013-12-12 12:15:00
6:35 AM,12.9,5.0,71,30.37,10.0,SSW,9.2,-,N/A,,Clear,200,2013-12-12 12:35:00
6:55 AM,12.9,5.0,71,30.37,10.0,SSW,8.1,-,N/A,,Clear,210,2013-12-12 12:55:00
7:15 AM,13.1,5.4,71,30.37,10.0,SSW,5.8,-,N/A,,Clear,210,2013-12-12 13:15:00
7:35 AM,12.0,4.8,73,30.37,10.0,SSW,5.8,-,N/A,,Clear,210,2013-12-12 13:35:00
7:55 AM,11.7,4.6,73,30.38,10.0,Calm,Calm,-,N/A,,Clear,0,2013-12-12 13:55:00
8:30 AM,12.2,5.0,73,30.37,10.0,SSW,4.6,-,N/A,,Clear,200,2013-12-12 14:30:00
8:55 AM,15.3,7.2,70,30.37,10.0,SSW,5.8,-,N/A,,Clear,210,2013-12-12 14:55:00
9:55 AM,20.8,11.1,66,30.36,10.0,SW,6.9,-,N/A,,Clear,220,2013-12-12 15:55:00
11:50 AM,26.6,15.8,64,30.32,10.0,WSW,3.5,-,N/A,,Clear,240,2013-12-12 17:50:00
12:15 PM,28.0,17.1,63,30.32,10.0,SW,6.9,-,N/A,,Clear,230,2013-12-12 18:15:00
12:35 PM,29.5,18.3,63,30.32,10.0,SW,6.9,-,N/A,,Clear,220,2013-12-12 18:35:00
1:15 PM,30.7,18.7,61,30.28,10.0,SSW,4.6,-,N/A,,Clear,200,2013-12-12 19:15:00
1:35 PM,31.1,19.4,62,30.28,10.0,SW,9.2,-,N/A,,Clear,220,2013-12-12 19:35:00
1:55 PM,31.6,19.8,62,30.28,10.0,SW,10.4,-,N/A,,Clear,220,2013-12-12 19:55:00
2:15 PM,31.6,20.3,63,30.27,10.0,SSW,6.9,-,N/A,,Clear,210,2013-12-12 20:15:00
2:35 PM,32.0,20.7,63,30.25,10.0,South,5.8,-,N/A,,Clear,190,2013-12-12 20:35:00
2:55 PM,32.0,20.5,63,30.23,10.0,South,3.5,-,N/A,,Clear,170,2013-12-12 20:55:00
3:15 PM,32.2,20.7,63,30.23,10.0,South,8.1,-,N/A,,Clear,190,2013-12-12 21:15:00
3:35 PM,32.0,21.2,64,30.22,10.0,South,5.8,-,N/A,,Clear,180,2013-12-12 21:35:00
3:55 PM,32.0,20.8,63,30.21,10.0,South,6.9,-,N/A,,Clear,190,2013-12-12 21:55:00
4:15 PM,31.5,21.2,66,30.20,10.0,South,6.9,-,N/A,,Clear,190,2013-12-12 22:15:00
4:35 PM,31.1,21.2,67,30.20,10.0,South,8.1,-,N/A,,Clear,190,2013-12-12 22:35:00
4:55 PM,30.0,20.8,69,30.20,10.0,South,6.9,-,N/A,,Clear,190,2013-12-12 22:55:00
5:15 PM,28.4,20.3,72,30.20,10.0,SSW,6.9,-,N/A,,Clear,200,2013-12-12 23:15:00
5:35 PM,27.0,19.6,74,30.19,10.0,SW,3.5,-,N/A,,Clear,220,2013-12-12 23:35:00
5:55 PM,26.1,19.6,76,30.19,10.0,Calm,Calm,-,N/A,,Clear,0,2013-12-12 23:55:00
6:15 PM,25.2,18.9,77,30.18,10.0,SW,3.5,-,N/A,,Clear,220,2013-12-13 00:15:00
6:35 PM,24.4,18.5,78,30.17,10.0,SSW,3.5,-,N/A,,Clear,200,2013-12-13 00:35:00
6:55 PM,25.0,19.0,78,30.16,10.0,Calm,Calm,-,N/A,,Clear,0,2013-12-13 00:55:00
7:15 PM,23.5,18.3,80,30.16,10.0,Calm,Calm,-,N/A,,Clear,0,2013-12-13 01:15:00
7:35 PM,20.8,15.1,78,30.15,10.0,Calm,Calm,-,N/A,,Clear,0,2013-12-13 01:35:00
7:55 PM,19.6,13.1,76,30.14,10.0,Calm,Calm,-,N/A,,Clear,0,2013-12-13 01:55:00
8:15 PM,21.6,16.7,82,30.13,10.0,Calm,Calm,-,N/A,,Clear,0,2013-12-13 02:15:00
8:35 PM,20.8,17.2,86,30.12,10.0,Calm,Calm,-,N/A,,Clear,0,2013-12-13 02:35:00
8:55 PM,21.4,17.4,85,30.12,10.0,Calm,Calm,-,N/A,,Clear,0,2013-12-13 02:55:00
9:15 PM,21.6,17.4,84,30.11,10.0,Calm,Calm,-,N/A,,Clear,0,2013-12-13 03:15:00
9:35 PM,19.9,15.1,81,30.09,10.0,South,5.8,-,N/A,,Clear,170,2013-12-13 03:35:00
9:55 PM,21.0,16.9,84,30.09,10.0,SSE,3.5,-,N/A,,Clear,150,2013-12-13 03:55:00
10:15 PM,21.0,16.0,81,30.09,10.0,SSE,3.5,-,N/A,,Clear,150,2013-12-13 04:15:00
10:35 PM,21.9,17.2,82,30.09,10.0,Calm,Calm,-,N/A,,Clear,0,2013-12-13 04:35:00
10:55 PM,22.6,16.9,79,30.09,10.0,South,4.6,-,N/A,,Clear,170,2013-12-13 04:55:00
11:15 PM,22.1,16.0,77,30.08,10.0,South,4.6,-,N/A,,Clear,180,2013-12-13 05:15:00
11:35 PM,22.3,16.3,78,30.07,10.0,South,4.6,-,N/A,,Clear,180,2013-12-13 05:35:00
11:55 PM,21.6,16.0,79,30.07,10.0,Calm,Calm,-,N/A,,Clear,0,2013-12-13 05:55:00